• In Russia
  • List of Countries
  • For 7 days
  • Water Temperature
  • Satellite Maps
  • Weather Map
  • Weather Widgets
  • user-avatar
    Login

    Hourly Weather Gashey

    Today, 16 November, Friday

    Time Temperature Precipitation Wind Pressure Humidity
    00:00 -14°C° 0 mm 2 mps 696 mmHg 61%
    01:00 -13°C° 0 mm 2 mps 695 mmHg 61%
    02:00 -13°C° 0 mm 2 mps 695 mmHg 62%
    03:00 -13°C° 0 mm 2 mps 695 mmHg 63%
    04:00 -11°C° 0 mm 1 mps 695 mmHg 64%
    05:00 -13°C° 0 mm 2 mps 695 mmHg 65%
    06:00 -13°C° 0 mm 2 mps 695 mmHg 66%
    07:00 -13°C° 0 mm 2 mps 696 mmHg 67%
    08:00 -12°C° 0 mm 2 mps 696 mmHg 63%
    09:00 -10°C° 0 mm 2 mps 696 mmHg 59%
    10:00 -9°C° 0 mm 2 mps 696 mmHg 54%
    11:00 -8°C° 0 mm 2 mps 696 mmHg 53%
    12:00 -7°C° 0 mm 2 mps 695 mmHg 52%
    13:00 -6°C° 0 mm 2 mps 695 mmHg 51%
    14:00 -7°C° 0 mm 2 mps 695 mmHg 56%
    15:00 -8°C° 0 mm 2 mps 694 mmHg 60%
    16:00 -8°C° 0 mm 1 mps 694 mmHg 65%
    17:00 -8°C° 0 mm 1 mps 694 mmHg 66%
    18:00 -8°C° 0 mm 1 mps 694 mmHg 67%
    19:00 -8°C° 0 mm 1 mps 694 mmHg 68%
    20:00 -8°C° 0 mm 1 mps 694 mmHg 70%
    21:00 -9°C° 0 mm 1 mps 694 mmHg 71%
    22:00 -9°C° 0 mm 1 mps 694 mmHg 73%
    23:00 -9°C° 0 mm 1 mps 694 mmHg 74%

    Tomorrow, 17 November, Saturday

    Time Temperature Precipitation Wind Pressure Humidity
    00:00 -9°C° 0 mm 1 mps 694 mmHg 76%
    01:00 -9°C° 0 mm 1 mps 694 mmHg 77%
    02:00 -9°C° 0.2 mm 1 mps 695 mmHg 81%
    03:00 -10°C° 0.2 mm 2 mps 695 mmHg 85%
    04:00 -10°C° 0.2 mm 2 mps 695 mmHg 89%
    05:00 -10°C° 0.1 mm 2 mps 696 mmHg 86%
    06:00 -13°C° 0.1 mm 3 mps 696 mmHg 84%
    07:00 -13°C° 0.1 mm 3 mps 697 mmHg 81%
    08:00 -13°C° 0 mm 3 mps 697 mmHg 74%
    09:00 -14°C° 0 mm 4 mps 698 mmHg 67%
    10:00 -14°C° 0 mm 5 mps 698 mmHg 60%
    11:00 -14°C° 0 mm 5 mps 698 mmHg 58%
    12:00 -14°C° 0 mm 5 mps 698 mmHg 56%
    13:00 -14°C° 0 mm 5 mps 698 mmHg 53%
    14:00 -15°C° 0 mm 4 mps 698 mmHg 57%
    15:00 -16°C° 0 mm 4 mps 698 mmHg 60%
    16:00 -16°C° 0 mm 3 mps 698 mmHg 64%
    17:00 -15°C° 0 mm 2 mps 699 mmHg 67%
    18:00 -16°C° 0 mm 2 mps 699 mmHg 70%
    19:00 -16°C° 0 mm 2 mps 699 mmHg 73%
    20:00 -14°C° 0 mm 1 mps 699 mmHg 74%
    21:00 -15°C° 0 mm 1 mps 699 mmHg 76%
    22:00 -15°C° 0 mm 1 mps 699 mmHg 77%
    23:00 -15°C° 0 mm 1 mps 699 mmHg 79%

    Day after tomorrow, 18 November, Sunday

    Time Temperature Precipitation Wind Pressure Humidity
    00:00 -15°C° 0 mm 1 mps 698 mmHg 81%
    01:00 -16°C° 0 mm 1 mps 698 mmHg 83%
    02:00 -16°C° 0 mm 1 mps 698 mmHg 84%
    03:00 -16°C° 0 mm 1 mps 698 mmHg 85%
    04:00 -16°C° 0 mm 1 mps 697 mmHg 86%
    05:00 -16°C° 0 mm 1 mps 697 mmHg 86%
    06:00 -17°C° 0 mm 1 mps 697 mmHg 87%
    07:00 -17°C° 0 mm 1 mps 697 mmHg 87%
    08:00 -16°C° 0 mm 1 mps 697 mmHg 80%
    09:00 -14°C° 0 mm 1 mps 697 mmHg 73%
    10:00 -13°C° 0 mm 1 mps 696 mmHg 66%
    11:00 -13°C° 0 mm 1 mps 696 mmHg 63%
    12:00 -12°C° 0 mm 1 mps 696 mmHg 60%
    13:00 -11°C° 0 mm 1 mps 695 mmHg 57%
    14:00 -12°C° 0 mm 1 mps 695 mmHg 63%
    15:00 -13°C° 0 mm 1 mps 695 mmHg 69%
    16:00 -14°C° 0 mm 1 mps 694 mmHg 74%
    17:00 -15°C° 0 mm 0 mps 694 mmHg 77%
    18:00 -15°C° 0 mm 0 mps 695 mmHg 80%
    19:00 -16°C° 0 mm 0 mps 695 mmHg 82%
    20:00 -16°C° 0 mm 0 mps 695 mmHg 83%
    21:00 -16°C° 0 mm 0 mps 695 mmHg 84%
    22:00 -16°C° 0 mm 0 mps 695 mmHg 85%
    23:00 -16°C° 0 mm 0 mps 695 mmHg 85%

    19 November, Monday

    Time Temperature Precipitation Wind Pressure Humidity
    00:00 -16°C° 0 mm 0 mps 695 mmHg 85%
    01:00 -17°C° 0 mm 0 mps 695 mmHg 86%
    02:00 -17°C° 0 mm 0 mps 695 mmHg 86%
    03:00 -17°C° 0 mm 0 mps 695 mmHg 86%
    04:00 -17°C° 0 mm 0 mps 695 mmHg 87%
    05:00 -17°C° 0 mm 1 mps 695 mmHg 87%
    06:00 -17°C° 0 mm 1 mps 696 mmHg 87%
    07:00 -17°C° 0 mm 1 mps 696 mmHg 87%
    08:00 -16°C° 0 mm 1 mps 696 mmHg 80%
    09:00 -15°C° 0 mm 1 mps 696 mmHg 73%
    10:00 -13°C° 0 mm 1 mps 697 mmHg 67%
    11:00 -14°C° 0 mm 2 mps 697 mmHg 63%
    12:00 -14°C° 0 mm 2 mps 697 mmHg 60%
    13:00 -14°C° 0 mm 3 mps 697 mmHg 57%
    14:00 -14°C° 0 mm 2 mps 697 mmHg 62%
    15:00 -14°C° 0 mm 2 mps 697 mmHg 67%
    16:00 -13°C° 0 mm 1 mps 697 mmHg 73%
    17:00 -14°C° 0 mm 1 mps 698 mmHg 75%
    18:00 -14°C° 0 mm 1 mps 698 mmHg 77%
    19:00 -15°C° 0 mm 1 mps 698 mmHg 80%
    20:00 -15°C° 0 mm 1 mps 698 mmHg 81%
    21:00 -15°C° 0 mm 1 mps 698 mmHg 81%
    22:00 -16°C° 0 mm 1 mps 698 mmHg 82%
    23:00 -16°C° 0 mm 1 mps 698 mmHg 82%

    20 November, Tuesday

    Time Temperature Precipitation Wind Pressure Humidity
    00:00 -16°C° 0 mm 1 mps 698 mmHg 83%
    01:00 -16°C° 0 mm 1 mps 698 mmHg 83%
    02:00 -16°C° 0 mm 1 mps 698 mmHg 84%
    03:00 -18°C° 0 mm 2 mps 698 mmHg 84%
    04:00 -18°C° 0 mm 2 mps 698 mmHg 85%
    05:00 -18°C° 0 mm 2 mps 697 mmHg 85%
    06:00 -18°C° 0 mm 2 mps 697 mmHg 85%
    07:00 -18°C° 0 mm 2 mps 697 mmHg 86%
    08:00 -17°C° 0 mm 2 mps 697 mmHg 78%
    09:00 -16°C° 0 mm 2 mps 697 mmHg 71%
    10:00 -14°C° 0 mm 2 mps 697 mmHg 63%
    11:00 -14°C° 0 mm 3 mps 696 mmHg 59%
    12:00 -13°C° 0 mm 3 mps 696 mmHg 56%
    13:00 -12°C° 0 mm 3 mps 695 mmHg 52%
    14:00 -13°C° 0 mm 3 mps 694 mmHg 58%
    15:00 -13°C° 0 mm 2 mps 694 mmHg 64%
    16:00 -14°C° 0 mm 2 mps 693 mmHg 69%
    17:00 -14°C° 0 mm 2 mps 693 mmHg 72%
    18:00 -15°C° 0 mm 2 mps 693 mmHg 74%
    19:00 -15°C° 0 mm 2 mps 693 mmHg 76%
    20:00 -15°C° 0 mm 2 mps 692 mmHg 77%
    21:00 -15°C° 0 mm 2 mps 692 mmHg 77%
    22:00 -15°C° 0 mm 2 mps 691 mmHg 77%
    23:00 -15°C° 0 mm 2 mps 691 mmHg 78%

    21 November, Wednesday

    Time Temperature Precipitation Wind Pressure Humidity
    00:00 -16°C° 0 mm 2 mps 690 mmHg 78%
    01:00 -14°C° 0 mm 1 mps 690 mmHg 79%
    02:00 -16°C° 0 mm 2 mps 690 mmHg 80%
    03:00 -16°C° 0 mm 2 mps 690 mmHg 80%
    04:00 -17°C° 0 mm 2 mps 689 mmHg 81%
    05:00 -17°C° 0 mm 2 mps 689 mmHg 81%
    06:00 -17°C° 0 mm 2 mps 689 mmHg 81%
    07:00 -17°C° 0 mm 2 mps 689 mmHg 81%
    08:00 -15°C° 0 mm 2 mps 689 mmHg 74%
    09:00 -14°C° 0 mm 2 mps 689 mmHg 67%
    10:00 -13°C° 0 mm 3 mps 689 mmHg 59%
    11:00 -12°C° 0 mm 3 mps 689 mmHg 57%
    12:00 -10°C° 0 mm 3 mps 688 mmHg 54%
    13:00 -9°C° 0 mm 3 mps 688 mmHg 51%
    14:00 -10°C° 0 mm 3 mps 688 mmHg 56%
    15:00 -12°C° 0 mm 3 mps 688 mmHg 61%
    16:00 -12°C° 0 mm 2 mps 688 mmHg 66%
    17:00 -12°C° 0 mm 2 mps 688 mmHg 68%
    18:00 -12°C° 0 mm 2 mps 688 mmHg 70%
    19:00 -12°C° 0 mm 2 mps 689 mmHg 71%
    20:00 -12°C° 0 mm 2 mps 689 mmHg 72%
    21:00 -13°C° 0 mm 2 mps 689 mmHg 73%
    22:00 -13°C° 0 mm 2 mps 689 mmHg 73%
    23:00 -13°C° 0 mm 2 mps 688 mmHg 74%
    Show more